THOR ABLESTAR DEB, 715

Orbit data source: Space-Track

THOR ABLESTAR DEB, 715 is space debris in LEO originally from a launch on Thu, 05 Dec 1963 UTC launched from the Air Force Western Test Range (AFWTR). Debris objects in space refer to the collection of defunct objects orbiting the Earth. Examples of debris include non-operational satellites, rocket bodies, and fragments generated from explosions, collisions, or faulty payload assembly.

Loading next visibility...
Identifier
715, 1963-049E
Orbit
LEO
Country
Flag of USUS
Related business
Manufacturer
Unknown
Mission
Spacecraft
Bus & Motor
Unknown
Mass
Unknown
Launch date (UTC)
1963-12-05 (62 years ago)
Launch vehicle
Unknown
Launch site
Air Force Western Test Range (AFWTR)
Object type
Payload
Rocket body
Debris
Shape & HBR
Unknown shape, 0.1 m
Radar Cross Section
Small (<0.1 m²)

Expand to show TLE details & history
Last TLE update: 8 hours ago

TLE from 8 hours ago
0 THOR ABLESTAR DEB
1   715U 63049E   25302.40743235  .00001274  00000-0  13158-2 0  9999
2   715  89.9084  79.7623 0031166 137.5449 277.3180 13.75202390 71667
Epoch: 2025-10-29T09:46Z
TLE epoch observation values (Epoch: 2025-10-29T09:46:42.155Z)
Latitude
54.60367°
Longitude
-104.76612°
Altitude
987.202 km
Speed
7.365 km/s
True Right ascension
05h 19m 33s
True Declination
54° 26' 46"
Sunlit
Object was in full shadow at epoch
Visualization orbit readout
Latitude
Unknown
Longitude
Unknown
Altitude
Unknown
Speed
Unknown
Apparent Right ascension
Unknown
Apparent Declination
Unknown
Sunlit
N/A
Visualization observer readout
Local Sidereal Time
13:25:57
Azimuth
Unknown
Elevation
Unknown
Doppler factor
Unknown
Orbital elements
Apogee altitude
1,000.892 km
Perigee altitude
955.04 km
Semi-major axis
7,356.103 km
Eccentricity
0.00312
Inclination
89.9084°
RAAN
79.7623°
Arg. of periapsis
137.5449°
True anomaly
276.9636°
Mean anomaly
277.318°
Eccentric anomaly
277.14082°
Mean motion
3.4401 °/min
Orbital period
104.65 mins
BSTAR
0.0013158
Loading maneuver chart data...
Computing Atmospheric mass density...
Loading historical data...
Loading historical data...
Loading historical data...
Loading historical data...
Loading historical data...
Loading historical data...
Loading historical data...

Documentation

Showing up to 5 results
|